Simultaneous Nadir Overpasses (SNOs) Predictions

Prediction of SNOs between GOES-16 and TERRA Satellite Orbit:

Table of predicted SNOs for the next 14.0 days since TLE Epoch: 11/17/2018
Index Date Time (GOES-16) GOES-16 Lat,Lon TERRA Lat,Lon Distance(km) Time Diff (sec)
1 11/18/2018 03:21:28 0.01, -75.23 0.48, -73.18 234.45 80
2 11/18/2018 15:42:43 -0.01, -75.23 0.63, -78.33 351.58 80
3 11/20/2018 15:30:30 -0.01, -75.25 -0.02, -75.37 13.49 80
4 11/22/2018 15:20:56 -0.01, -75.26 -0.60, -72.39 325.66 80
5 11/23/2018 03:42:20 0.01, -75.27 -0.48, -77.58 263.65 80
6 11/25/2018 03:27:27 -0.00, -75.28 0.16, -74.62 75.29 80
7 11/27/2018 03:15:14 -0.01, -75.30 0.80, -71.66 414.38 80
8 11/27/2018 15:36:28 0.01, -75.30 0.31, -76.81 171.57 80
9 11/29/2018 15:26:56 0.01, -75.32 -0.32, -73.85 168.14 80
10 11/30/2018 03:48:18 -0.01, -75.33 -0.81, -79.03 420.63 80




NCC Satellite Simultaneous Nadir Overpasses (SNOs) Prediction Service
